LVCAM SKBG-SKSM

Flight info

Callsign LVCAM
Flight time 0h 40m
Altitude 30000
Route UBMUN1C UBMUN DCT DIBAM UW9 ELB/N0481F290 UW9 EDVAR EDVAR1D
Aircraft A320/M-SDE3FGHIRWY/LB1

Departure

Time 2026-04-21 17:37
Airport Palonegro Airport (SKBG)

Arrival

Time 2026-04-21 18:18
Airport Simón Bolívar International Airport (SKSM)
Time Latitude Longitude Altitude Speed Heading
2026-04-21 17:03 7.12721 -73.18096 3895 ft 0 kts
2026-04-21 17:28 7.12712 -73.18097 3894 ft 4 kts
2026-04-21 17:29 7.12686 -73.18095 3894 ft 4 kts 342°
2026-04-21 17:29 7.12665 -73.18086 3893 ft 1 kts 330°
2026-04-21 17:32 7.12672 -73.18095 3893 ft 3 kts 304°
2026-04-21 17:32 7.12677 -73.18133 3894 ft 8 kts 276°
2026-04-21 17:32 7.12686 -73.18198 3895 ft 6 kts 279°
2026-04-21 17:32 7.12711 -73.18247 3894 ft 10 kts 297°
2026-04-21 17:33 7.12715 -73.18330 3896 ft 15 kts 255°
2026-04-21 17:33 7.12616 -73.18352 3894 ft 20 kts 161°
2026-04-21 17:33 7.12501 -73.18309 3891 ft 15 kts 160°
2026-04-21 17:33 7.12387 -73.18265 3888 ft 17 kts 159°
2026-04-21 17:34 7.12255 -73.18214 3885 ft 20 kts 159°
2026-04-21 17:34 7.12130 -73.18167 3882 ft 13 kts 160°
2026-04-21 17:34 7.12099 -73.18155 3880 ft 6 kts 158°
2026-04-21 17:34 7.12033 -73.18129 3879 ft 14 kts 159°
2026-04-21 17:35 7.11951 -73.18100 3876 ft 13 kts 161°
2026-04-21 17:35 7.11900 -73.18086 3875 ft 3 kts 171°
2026-04-21 17:35 7.11893 -73.18085 3875 ft 4 kts 172°
2026-04-21 17:35 7.11838 -73.18080 3873 ft 12 kts 176°
2026-04-21 17:36 7.11747 -73.18079 3870 ft 15 kts 191°
2026-04-21 17:36 7.11745 -73.18131 3870 ft 8 kts 340°
2026-04-21 17:36 7.11800 -73.18151 3873 ft 22 kts 340°
2026-04-21 17:36 7.12142 -73.18278 3883 ft 89 kts 340°
2026-04-21 17:37 7.12946 -73.18579 3904 ft 154 kts 339°
2026-04-21 17:37 7.13973 -73.18895 4704 ft 146 kts 346°
2026-04-21 17:37 7.14974 -73.19173 5398 ft 157 kts 340°
2026-04-21 17:37 7.16021 -73.19581 6023 ft 174 kts 338°
2026-04-21 17:38 7.17200 -73.20066 6310 ft 193 kts 339°
2026-04-21 17:38 7.18517 -73.20603 6494 ft 216 kts 339°
2026-04-21 17:38 7.19993 -73.21191 6694 ft 241 kts 339°
2026-04-21 17:38 7.21633 -73.21836 7014 ft 266 kts 340°
2026-04-21 17:39 7.23413 -73.22534 7471 ft 282 kts 339°
2026-04-21 17:39 7.25235 -73.23309 8208 ft 287 kts 337°
2026-04-21 17:39 7.27072 -73.24128 8965 ft 291 kts 336°
2026-04-21 17:39 7.28928 -73.24973 9726 ft 295 kts 336°
2026-04-21 17:40 7.30813 -73.25831 10316 ft 306 kts 336°
2026-04-21 17:40 7.32823 -73.26739 10522 ft 329 kts 336°
2026-04-21 17:40 7.34981 -73.27708 10663 ft 351 kts 336°
2026-04-21 17:40 7.37267 -73.28725 10984 ft 366 kts 336°
2026-04-21 17:41 7.39614 -73.29758 11592 ft 371 kts 337°
2026-04-21 17:41 7.42008 -73.30756 12286 ft 375 kts 338°
2026-04-21 17:41 7.44437 -73.31726 12981 ft 378 kts 338°
2026-04-21 17:41 7.46887 -73.32688 13605 ft 382 kts 339°
2026-04-21 17:42 7.49358 -73.33656 14224 ft 385 kts 339°
2026-04-21 17:42 7.51857 -73.34642 14834 ft 388 kts 338°
2026-04-21 17:42 7.54375 -73.35643 15385 ft 392 kts 338°
2026-04-21 17:42 7.56884 -73.36645 15920 ft 396 kts 338°
2026-04-21 17:43 7.59447 -73.37673 16452 ft 399 kts 338°
2026-04-21 17:43 7.62029 -73.38713 16959 ft 402 kts 338°
2026-04-21 17:43 7.64633 -73.39763 17461 ft 405 kts 338°
2026-04-21 17:43 7.67260 -73.40821 17943 ft 409 kts 338°
2026-04-21 17:44 7.69904 -73.41885 18417 ft 412 kts 338°
2026-04-21 17:44 7.72570 -73.42956 18878 ft 415 kts 338°
2026-04-21 17:44 7.75256 -73.44032 19316 ft 418 kts 338°
2026-04-21 17:44 7.77960 -73.45116 19749 ft 421 kts 338°
2026-04-21 17:45 7.80683 -73.46209 20152 ft 424 kts 338°
2026-04-21 17:45 7.83426 -73.47313 20546 ft 427 kts 338°
2026-04-21 17:45 7.86187 -73.48423 20942 ft 430 kts 338°
2026-04-21 17:45 7.88967 -73.49542 21319 ft 432 kts 338°
2026-04-21 17:46 7.91761 -73.50670 21686 ft 435 kts 338°
2026-04-21 17:46 7.94580 -73.51808 22055 ft 438 kts 338°
2026-04-21 17:46 7.97389 -73.52939 22408 ft 441 kts 338°
2026-04-21 17:46 8.00241 -73.54087 22763 ft 444 kts 338°
2026-04-21 17:47 8.03110 -73.55243 23100 ft 446 kts 338°
2026-04-21 17:47 8.05993 -73.56407 23427 ft 449 kts 338°
2026-04-21 17:47 8.08894 -73.57577 23739 ft 451 kts 338°
2026-04-21 17:47 8.11815 -73.58753 24041 ft 455 kts 338°
2026-04-21 17:48 8.13761 -73.59533 24245 ft 455 kts 338°
2026-04-21 17:48 8.17690 -73.61116 24640 ft 459 kts 338°
2026-04-21 17:48 8.20654 -73.62312 24945 ft 460 kts 338°
2026-04-21 17:48 8.23622 -73.63516 25237 ft 462 kts 338°
2026-04-21 17:49 8.26605 -73.64735 25535 ft 464 kts 338°
2026-04-21 17:49 8.29595 -73.65962 25825 ft 467 kts 337°
2026-04-21 17:49 8.32591 -73.67189 26112 ft 467 kts 338°
2026-04-21 17:49 8.35600 -73.68431 26355 ft 469 kts 337°
2026-04-21 17:50 8.38608 -73.69674 26630 ft 472 kts 337°
2026-04-21 17:50 8.41640 -73.70920 26895 ft 472 kts 338°
2026-04-21 17:50 8.44683 -73.72164 27135 ft 474 kts 338°
2026-04-21 17:50 8.47738 -73.73411 27382 ft 475 kts 338°
2026-04-21 17:51 8.50806 -73.74664 27622 ft 477 kts 338°
2026-04-21 17:51 8.53880 -73.75917 27858 ft 478 kts 338°
2026-04-21 17:51 8.56967 -73.77178 28096 ft 480 kts 338°
2026-04-21 17:51 8.60059 -73.78449 28332 ft 482 kts 337°
2026-04-21 17:52 8.63154 -73.79724 28645 ft 481 kts 337°
2026-04-21 17:52 8.66244 -73.80995 28989 ft 480 kts 338°
2026-04-21 17:52 8.69323 -73.82258 29323 ft 478 kts 338°
2026-04-21 17:52 8.72399 -73.83520 29652 ft 478 kts 337°
2026-04-21 17:53 8.75472 -73.84782 29954 ft 478 kts 337°
2026-04-21 17:53 8.78540 -73.86042 30018 ft 477 kts 337°
2026-04-21 17:53 8.84660 -73.88558 30021 ft 476 kts 337°
2026-04-21 17:54 8.90774 -73.91071 30002 ft 475 kts 337°
2026-04-21 17:54 8.96888 -73.93586 30009 ft 475 kts 337°
2026-04-21 17:55 9.03036 -73.96005 30002 ft 476 kts 343°
2026-04-21 17:55 9.09567 -73.96943 30001 ft 477 kts 356°
2026-04-21 17:56 9.16118 -73.97224 29994 ft 476 kts 356°
2026-04-21 17:56 9.22728 -73.97521 29993 ft 477 kts 356°
2026-04-21 17:57 9.29344 -73.97814 29987 ft 477 kts 356°
2026-04-21 17:57 9.35960 -73.98102 29988 ft 477 kts 356°
2026-04-21 17:58 9.42576 -73.98394 29986 ft 477 kts 356°
2026-04-21 17:58 9.49182 -73.98681 29990 ft 477 kts 356°
2026-04-21 17:59 9.52501 -73.98823 29796 ft 478 kts 356°
2026-04-21 17:59 9.55816 -73.98964 29542 ft 478 kts 356°
2026-04-21 17:59 9.59132 -73.99107 29301 ft 478 kts 356°
2026-04-21 17:59 9.62450 -73.99254 29054 ft 478 kts 356°
2026-04-21 18:00 9.65773 -73.99400 28806 ft 479 kts 356°
2026-04-21 18:00 9.69101 -73.99550 28502 ft 479 kts 356°
2026-04-21 18:00 9.72426 -73.99699 27366 ft 483 kts 357°
2026-04-21 18:00 9.75773 -73.99848 26082 ft 481 kts 357°
2026-04-21 18:01 9.79076 -73.99995 24815 ft 472 kts 357°
2026-04-21 18:01 9.82336 -74.00141 23759 ft 470 kts 358°
2026-04-21 18:01 9.85594 -74.00288 22906 ft 469 kts 359°
2026-04-21 18:01 9.88839 -74.00431 22077 ft 467 kts 359°
2026-04-21 18:02 9.92064 -74.00570 21272 ft 463 kts 359°
2026-04-21 18:02 9.95266 -74.00707 20499 ft 459 kts 359°
2026-04-21 18:02 9.98429 -74.00844 19729 ft 454 kts 358°
2026-04-21 18:02 10.01563 -74.00979 18988 ft 450 kts 358°
2026-04-21 18:03 10.04669 -74.01112 18266 ft 446 kts 358°
2026-04-21 18:03 10.07739 -74.01248 17582 ft 440 kts 357°
2026-04-21 18:03 10.10747 -74.01651 16923 ft 435 kts 348°
2026-04-21 18:03 10.13631 -74.02437 16291 ft 429 kts 345°
2026-04-21 18:04 10.16480 -74.03245 15710 ft 423 kts 345°
2026-04-21 18:04 10.19292 -74.04039 15127 ft 418 kts 345°
2026-04-21 18:04 10.22065 -74.04821 14560 ft 411 kts 345°
2026-04-21 18:04 10.24798 -74.05592 13977 ft 407 kts 345°
2026-04-21 18:05 10.27505 -74.06356 13397 ft 402 kts 345°
2026-04-21 18:05 10.30180 -74.07108 12792 ft 398 kts 345°
2026-04-21 18:05 10.32830 -74.07853 12176 ft 394 kts 345°
2026-04-21 18:05 10.35454 -74.08590 11519 ft 391 kts 345°
2026-04-21 18:06 10.38048 -74.09319 11100 ft 381 kts 345°
2026-04-21 18:06 10.40539 -74.10017 10969 ft 362 kts 345°
2026-04-21 18:06 10.42866 -74.10670 10840 ft 334 kts 344°
2026-04-21 18:06 10.45019 -74.11276 10663 ft 311 kts 344°
2026-04-21 18:07 10.47074 -74.11860 10366 ft 304 kts 344°
2026-04-21 18:07 10.49090 -74.12433 10111 ft 298 kts 344°
2026-04-21 18:07 10.51083 -74.12995 9897 ft 296 kts 345°
2026-04-21 18:07 10.53067 -74.13556 9774 ft 297 kts 344°
2026-04-21 18:08 10.55048 -74.14116 9648 ft 296 kts 344°
2026-04-21 18:08 10.57032 -74.14679 9526 ft 296 kts 344°
2026-04-21 18:08 10.59011 -74.15241 9421 ft 296 kts 344°
2026-04-21 18:08 10.60992 -74.15802 9165 ft 296 kts 344°
2026-04-21 18:09 10.62965 -74.16360 8783 ft 294 kts 344°
2026-04-21 18:09 10.64927 -74.16913 8408 ft 292 kts 344°
2026-04-21 18:09 10.66875 -74.17465 8011 ft 291 kts 344°
2026-04-21 18:09 10.68819 -74.18015 7616 ft 291 kts 345°
2026-04-21 18:10 10.70762 -74.18565 7223 ft 290 kts 345°
2026-04-21 18:10 10.72705 -74.19116 6870 ft 290 kts 345°
2026-04-21 18:10 10.74634 -74.19662 6496 ft 289 kts 345°
2026-04-21 18:10 10.76556 -74.20206 6228 ft 285 kts 345°
2026-04-21 18:11 10.78447 -74.20740 5869 ft 283 kts 345°
2026-04-21 18:11 10.80328 -74.21272 5350 ft 278 kts 345°
2026-04-21 18:11 10.82178 -74.21797 4947 ft 276 kts 345°
2026-04-21 18:11 10.84021 -74.22310 4621 ft 274 kts 348°
2026-04-21 18:12 10.85876 -74.22504 4363 ft 264 kts 360°
2026-04-21 18:12 10.87663 -74.22539 3907 ft 256 kts 360°
2026-04-21 18:12 10.89391 -74.22576 3583 ft 242 kts 360°
2026-04-21 18:12 10.91017 -74.22611 3416 ft 226 kts
2026-04-21 18:13 10.92535 -74.22644 3289 ft 211 kts
2026-04-21 18:13 10.93929 -74.22674 3218 ft 191 kts
2026-04-21 18:13 10.95200 -74.22704 3093 ft 178 kts
2026-04-21 18:13 10.96418 -74.22732 2849 ft 173 kts
2026-04-21 18:14 10.98737 -74.22785 2467 ft 164 kts
2026-04-21 18:14 10.99841 -74.22810 2307 ft 155 kts
2026-04-21 18:14 11.00895 -74.22832 2119 ft 151 kts 359°
2026-04-21 18:15 11.01943 -74.22853 1928 ft 151 kts 359°
2026-04-21 18:15 11.02988 -74.22875 1703 ft 150 kts 358°
2026-04-21 18:15 11.04026 -74.22896 1492 ft 150 kts 357°
2026-04-21 18:15 11.05067 -74.22919 1314 ft 148 kts 358°
2026-04-21 18:16 11.06068 -74.22938 1110 ft 142 kts 358°
2026-04-21 18:16 11.07043 -74.22959 913 ft 139 kts 358°
2026-04-21 18:16 11.08008 -74.22979 718 ft 139 kts 357°
2026-04-21 18:16 11.08967 -74.23003 509 ft 139 kts 357°
2026-04-21 18:17 11.09936 -74.23013 314 ft 141 kts 359°
2026-04-21 18:17 11.10910 -74.23032 87 ft 139 kts 358°
2026-04-21 18:17 11.11812 -74.23058 29 ft 115 kts
2026-04-21 18:17 11.12441 -74.23069 31 ft 57 kts 359°
2026-04-21 18:18 11.12643 -74.23070 30 ft 8 kts
2026-04-21 18:18 11.12698 -74.23068 30 ft 2 kts
2026-04-21 18:18 11.12699 -74.23094 30 ft 8 kts 208°
2026-04-21 18:18 11.12609 -74.23082 30 ft 18 kts 171°
2026-04-21 18:19 11.12456 -74.23074 31 ft 26 kts 178°
2026-04-21 18:19 11.12294 -74.23072 31 ft 24 kts 181°
2026-04-21 18:19 11.12200 -74.23088 29 ft 0 kts 194°
2026-04-21 18:19 11.12190 -74.23090 29 ft 4 kts 189°
2026-04-21 18:20 11.12142 -74.23099 29 ft 10 kts 192°
2026-04-21 18:20 11.12052 -74.23118 28 ft 16 kts 191°
2026-04-21 18:20 11.11999 -74.23130 27 ft 7 kts 193°
2026-04-21 18:20 11.11979 -74.23134 27 ft 4 kts 193°
2026-04-21 18:21 11.11937 -74.23144 27 ft 9 kts 192°
2026-04-21 18:21 11.11858 -74.23158 27 ft 8 kts 184°
2026-04-21 18:21 11.11796 -74.23158 27 ft 12 kts 178°
2026-04-21 18:21 11.11772 -74.23157 27 ft 0 kts 178°
2026-04-21 18:22 11.11771 -74.23157 27 ft 0 kts 178°
2026-04-21 18:22 11.11756 -74.23157 27 ft 0 kts 178°
2026-04-21 18:22 11.11749 -74.23159 26 ft 1 kts 199°
2026-04-21 18:22 11.11745 -74.23166 26 ft 1 kts 240°
2026-04-21 18:23 11.11744 -74.23170 26 ft 0 kts 253°
2026-04-21 18:23 11.11744 -74.23174 26 ft 0 kts 258°
2026-04-21 18:23 11.11741 -74.23185 26 ft 2 kts 265°
2026-04-21 18:23 11.11742 -74.23193 26 ft 1 kts 271°
2026-04-21 18:24 11.11741 -74.23208 26 ft 3 kts 269°
2026-04-21 18:24 11.11742 -74.23212 26 ft 0 kts 270°
2026-04-21 18:30 11.11741 -74.23215 26 ft 0 kts 270°